QPF
0.00 0.00 0.00 0.00 0.00 0.00 0.00 0.00 0.00 0.00 0.00 0.00 0.00 0.00 0.00 0.00 0.00 0.00 0.00 0.00 0.00 0.00 0.00 0.00 0.00 0.00 0.00 0.02 0.00 0.00 0.03 0.01 0.00 0.00 0.00 0.00 0.00 0.00 0.00 0.00 0.00 0.00 0.00 0.00 0.00
0.00 0.00 0.00 0.00 0.00 0.00 0.00 0.00 0.00 0.00 0.00 0.00 0.00 0.00 0.00 0.00 0.00 0.00 0.00 0.00 0.00 0.00 0.00 0.00 0.00 0.00 0.01 0.01 0.01 0.06 0.05 0.06 0.01 0.00 0.00 0.00 0.00 0.00 0.00 0.00 0.00 0.00 0.00 0.00 0.00
0.00 0.00 0.00 0.00 0.00 0.00 0.00 0.00 0.00 0.00 0.00 0.00 0.00 0.00 0.00 0.00 0.00 0.00 0.00 0.00 0.00 0.00 0.00 0.00 0.00 0.00 0.02 0.02 0.02 0.02 0.06 0.04 0.02 0.00 0.00 0.00 0.00 0.00 0.00 0.00 0.00 0.00 0.00 0.00 0.00
0.00 0.00 0.00 0.00 0.00 0.00 0.00 0.00 0.00 0.00 0.00 0.00 0.00 0.00 0.00 0.00 0.00 0.00 0.00 0.00 0.00 0.00 0.00 0.00 0.00 0.00 0.02 0.02 0.01 0.04 0.00 0.02 0.03 0.00 0.00 0.00 0.00 0.00 0.00 0.00 0.00 0.00 0.00 0.00 0.00
0.00 0.00 0.00 0.00 0.00 0.00 0.00 0.00 0.00 0.00 0.00 0.00 0.00 0.00 0.00 0.00 0.00 0.00 0.00 0.00 0.00 0.00 0.00 0.00 0.00 0.00 0.02 0.01 0.01 0.00 0.00 0.00 0.02 0.04 0.01 0.01 0.00 0.00 0.00 0.00 0.00 0.00 0.00 0.00 0.00
0.00 0.00 0.00 0.00 0.00 0.00 0.00 0.00 0.00 0.00 0.00 0.00 0.00 0.00 0.00 0.00 0.00 0.00 0.00 0.00 0.00 0.00 0.00 0.00 0.00 0.00 0.00 0.00 0.00 0.00 0.00 0.00 0.00 0.00 0.05 0.06 0.00 0.02 0.01 0.00 0.00 0.00 0.00 0.00 0.00
0.00 0.00 0.00 0.00 0.00 0.00 0.00 0.00 0.00 0.00 0.00 0.00 0.00 0.00 0.00 0.00 0.00 0.00 0.00 0.00 0.00 0.00 0.00 0.00 0.00 0.00 0.00 0.01 0.00 0.00 0.04 0.06 0.05 0.01 0.00 0.09 0.13 0.03 0.00 0.00 0.00 0.00 0.00 0.00 0.00
0.00 0.00 0.00 0.00 0.00 0.00 0.00 0.00 0.00 0.00 0.00 0.00 0.00 0.00 0.00 0.00 0.00 0.00 0.00 0.00 0.00 0.00 0.00 0.00 0.00 0.00 0.00 0.01 0.00 0.01 0.11 0.20 0.14 0.08 0.03 0.06 0.08 0.08 0.03 0.00 0.00 0.00 0.00 0.00 0.00
0.00 0.00 0.00 0.00 0.00 0.00 0.00 0.00 0.00 0.00 0.00 0.00 0.00 0.00 0.00 0.00 0.00 0.00 0.00 0.00 0.00 0.00 0.00 0.00 0.00 0.00 0.00 0.00 0.00 0.02 0.10 0.17 0.01 0.02 0.01 0.02 0.03 0.01 0.04 0.01 0.00 0.00 0.00 0.00 0.00
0.00 0.00 0.00 0.00 0.00 0.00 0.00 0.00 0.00 0.00 0.00 0.00 0.00 0.00 0.00 0.00 0.00 0.00 0.00 0.00 0.00 0.00 0.00 0.00 0.00 0.00 0.00 0.00 0.01 0.02 0.03 0.01 0.03 0.00 0.00 0.00 0.01 0.00 0.07 0.03 0.02 0.00 0.00 0.00 0.00
0.00 0.00 0.00 0.00 0.00 0.00 0.00 0.00 0.00 0.00 0.00 0.00 0.00 0.00 0.00 0.00 0.00 0.00 0.00 0.00 0.00 0.00 0.00 0.00 0.00 0.00 0.00 0.00 0.00 0.00 0.00 0.00 0.00 0.00 0.01 0.00 0.00 0.00 0.04 0.02 0.04 0.02 0.00 0.01 0.01
0.00 0.00 0.00 0.00 0.00 0.00 0.00 0.00 0.00 0.00 0.00 0.00 0.00 0.00 0.00 0.00 0.00 0.00 0.00 0.00 0.00 0.00 0.00 0.00 0.00 0.00 0.00 0.00 0.00 0.00 0.00 0.00 0.01 0.00 0.03 0.02 0.00 0.00 0.01 0.00 0.05 0.03 0.00 0.01 0.01
0.00 0.00 0.00 0.00 0.00 0.00 0.00 0.00 0.00 0.00 0.00 0.00 0.00 0.00 0.00 0.00 0.00 0.00 0.00 0.00 0.00 0.00 0.00 0.00 0.00 0.00 0.00 0.00 0.00 0.00 0.00 0.00 0.02 0.00 0.00 0.01 0.05 0.00 0.00 0.00 0.01 0.04 0.00 0.01 0.01
0.00 0.00 0.00 0.00 0.00 0.00 0.00 0.00 0.00 0.00 0.00 0.00 0.00 0.00 0.00 0.00 0.00 0.00 0.00 0.00 0.00 0.00 0.00 0.00 0.00 0.00 0.00 0.00 0.00 0.00 0.00 0.00 0.00 0.01 0.05 0.02 0.09 0.03 0.00 0.01 0.00 0.01 0.00 0.02 0.00
0.00 0.00 0.00 0.00 0.00 0.00 0.00 0.00 0.00 0.00 0.00 0.00 0.00 0.00 0.00 0.00 0.00 0.00 0.00 0.00 0.00 0.00 0.00 0.00 0.00 0.00 0.00 0.00 0.00 0.00 0.00 0.00 0.00 0.00 0.00 0.03 0.05 0.07 0.01 0.01 0.00 0.00 0.00 0.00 0.01
0.00 0.00 0.00 0.00 0.00 0.00 0.00 0.00 0.00 0.00 0.00 0.00 0.00 0.00 0.00 0.00 0.00 0.00 0.00 0.00 0.00 0.00 0.00 0.00 0.00 0.00 0.00 0.00 0.00 0.00 0.00 0.00 0.00 0.00 0.00 0.00 0.02 0.07 0.02 0.01 0.00 0.00 0.00 0.00 0.01
0.00 0.00 0.00 0.00 0.00 0.00 0.00 0.00 0.00 0.00 0.00 0.00 0.00 0.00 0.00 0.00 0.00 0.00 0.00 0.00 0.00 0.00 0.00 0.00 0.00 0.00 0.00 0.00 0.00 0.00 0.00 0.00 0.00 0.00 0.00 0.00 0.01 0.02 0.00 0.00 0.00 0.00 0.00 0.00 0.00
0.00 0.00 0.00 0.00 0.00 0.00 0.00 0.00 0.00 0.00 0.00 0.00 0.00 0.00 0.00 0.00 0.00 0.00 0.00 0.00 0.00 0.00 0.00 0.00 0.00 0.00 0.00 0.00 0.00 0.00 0.00 0.00 0.00 0.00 0.01 0.01 0.00 0.01 0.00 0.00 0.00 0.00 0.00 0.00 0.00
0.00 0.00 0.00 0.00 0.00 0.00 0.00 0.00 0.00 0.00 0.00 0.00 0.00 0.00 0.00 0.00 0.00 0.00 0.00 0.00 0.00 0.00 0.00 0.00 0.00 0.00 0.00 0.00 0.00 0.00 0.00 0.00 0.00 0.00 0.00 0.00 0.00 0.02 0.00 0.00 0.00 0.01 0.00 0.00 0.00
0.00 0.00 0.00 0.00 0.00 0.00 0.00 0.00 0.00 0.00 0.00 0.00 0.00 0.00 0.00 0.00 0.00 0.00 0.00 0.00 0.00 0.00 0.00 0.00 0.00 0.00 0.00 0.00 0.00 0.00 0.00 0.00 0.00 0.00 0.00 0.00 0.02 0.12 0.10 0.08 0.00 0.01 0.00 0.00 0.00
0.00 0.00 0.00 0.00 0.00 0.00 0.00 0.00 0.00 0.00 0.00 0.00 0.00 0.00 0.00 0.00 0.00 0.00 0.00 0.00 0.00 0.00 0.00 0.00 0.00 0.00 0.00 0.00 0.00 0.00 0.00 0.00 0.00 0.00 0.00 0.02 0.16 0.04 0.09 0.02 0.06 0.02 0.02 0.00 0.02
0.00 0.00 0.00 0.00 0.00 0.00 0.00 0.00 0.00 0.00 0.00 0.00 0.00 0.00 0.00 0.00 0.00 0.00 0.00 0.00 0.00 0.00 0.00 0.00 0.00 0.00 0.00 0.00 0.00 0.00 0.00 0.00 0.00 0.00 0.00 0.00 0.07 0.00 0.00 0.00 0.02 0.02 0.01 0.00 0.02
0.00 0.00 0.00 0.00 0.00 0.00 0.00 0.00 0.00 0.00 0.00 0.00 0.00 0.00 0.00 0.00 0.00 0.00 0.00 0.00 0.00 0.00 0.00 0.00 0.00 0.00 0.00 0.00 0.00 0.00 0.00 0.01 0.01 0.00 0.00 0.00 0.02 0.00 0.00 0.01 0.04 0.10 0.03 0.00 0.00
0.00 0.00 0.00 0.00 0.00 0.00 0.00 0.00 0.00 0.00 0.00 0.00 0.00 0.00 0.00 0.00 0.00 0.00 0.00 0.00 0.00 0.00 0.00 0.00 0.00 0.00 0.01 0.02 0.01 0.00 0.00 0.00 0.01 0.01 0.00 0.00 0.00 0.00 0.00 0.02 0.01 0.07 0.09 0.04 0.00
0.00 0.00 0.00 0.00 0.00 0.00 0.00 0.00 0.00 0.00 0.00 0.00 0.00 0.00 0.00 0.00 0.00 0.00 0.00 0.00 0.00 0.00 0.00 0.00 0.00 0.00 0.03 0.01 0.03 0.01 0.00 0.00 0.00 0.00 0.00 0.00 0.00 0.00 0.00 0.00 0.00 0.02 0.02 0.08 0.05
0.00 0.00 0.00 0.00 0.00 0.00 0.00 0.00 0.00 0.00 0.00 0.00 0.00 0.00 0.00 0.00 0.00 0.00 0.00 0.00 0.00 0.00 0.00 0.00 0.00 0.00 0.01 0.00 0.01 0.01 0.00 0.00 0.02 0.02 0.01 0.00 0.00 0.00 0.01 0.01 0.05 0.05 0.09 0.09 0.09
0.00 0.00 0.00 0.00 0.00 0.00 0.00 0.00 0.00 0.00 0.00 0.00 0.00 0.00 0.00 0.00 0.00 0.00 0.00 0.00 0.00 0.00 0.00 0.00 0.00 0.00 0.00 0.02 0.01 0.00 0.00 0.00 0.01 0.03 0.01 0.00 0.00 0.00 0.01 0.03 0.04 0.05 0.11 0.15 0.10
MSLP
1017.71 1017.49 1017.26 1017.03 1016.76 1016.47 1016.24 1016.14 1016.00 1015.74 1015.47 1015.23 1014.97 1014.72 1014.45 1014.06 1013.21 1012.38 1010.14 1009.50 1009.14 1009.61 1009.68 1008.05 1007.57 1006.94 1006.73 1006.92 1006.44 1006.09 1006.16 1006.27 1004.93 1005.14 1005.26 1005.97 1006.19 1006.65 1006.98 1007.14 1007.33 1007.58 1008.61 1009.78 1011.16
1017.75 1017.54 1017.27 1016.99 1016.69 1016.45 1016.21 1016.04 1015.88 1015.69 1015.47 1015.17 1014.89 1014.58 1014.28 1013.97 1012.36 1009.90 1009.54 1009.31 1009.55 1009.63 1008.94 1007.40 1006.75 1006.36 1006.45 1006.64 1006.04 1005.95 1006.91 1007.05 1006.27 1006.45 1005.30 1006.02 1006.29 1006.73 1006.58 1007.17 1007.83 1007.89 1009.07 1010.63 1010.94
1017.79 1017.56 1017.29 1016.99 1016.68 1016.38 1016.13 1015.95 1015.79 1015.53 1015.30 1015.05 1014.78 1014.46 1014.12 1013.75 1010.97 1008.02 1009.17 1009.42 1009.52 1009.44 1008.18 1006.68 1005.97 1005.70 1006.32 1006.59 1006.34 1006.60 1008.10 1007.71 1006.86 1006.52 1005.84 1006.25 1006.43 1006.66 1006.28 1007.08 1007.66 1008.53 1009.70 1010.64 1010.96
1017.84 1017.55 1017.26 1016.96 1016.68 1016.36 1016.11 1015.89 1015.64 1015.39 1015.12 1014.89 1014.62 1014.30 1013.94 1012.79 1008.71 1008.21 1009.26 1009.42 1009.46 1008.80 1007.62 1006.61 1005.73 1005.02 1005.65 1006.36 1006.17 1007.59 1009.56 1009.30 1008.55 1008.08 1006.88 1007.14 1006.67 1006.79 1006.81 1007.50 1007.77 1008.93 1009.96 1010.56 1010.79
1017.84 1017.53 1017.28 1016.99 1016.68 1016.38 1016.05 1015.76 1015.49 1015.22 1014.94 1014.66 1014.40 1014.13 1013.24 1010.31 1007.77 1008.07 1009.17 1009.36 1009.04 1008.26 1006.92 1005.98 1004.96 1004.23 1005.61 1005.88 1006.31 1008.01 1010.04 1010.35 1010.32 1010.07 1009.23 1008.99 1007.89 1007.56 1007.50 1007.66 1008.48 1009.27 1010.04 1010.47 1010.53
1017.87 1017.56 1017.27 1016.89 1016.53 1016.20 1015.91 1015.60 1015.35 1015.09 1014.75 1014.43 1014.16 1014.06 1012.07 1008.37 1007.71 1007.86 1008.18 1008.51 1007.66 1007.24 1006.29 1005.61 1004.74 1004.88 1004.46 1005.17 1006.01 1008.31 1009.65 1010.66 1011.16 1011.23 1011.35 1010.76 1009.64 1008.79 1008.26 1008.55 1009.08 1009.65 1009.92 1010.27 1010.40
1017.91 1017.55 1017.13 1016.74 1016.36 1016.00 1015.69 1015.37 1015.02 1014.75 1014.48 1014.16 1013.97 1013.10 1010.12 1008.33 1007.82 1007.81 1007.86 1007.52 1007.20 1006.72 1005.97 1005.71 1005.52 1005.10 1004.60 1005.40 1006.94 1008.30 1009.39 1010.36 1011.48 1011.98 1012.43 1012.54 1011.44 1009.80 1009.17 1009.02 1009.39 1009.50 1009.65 1010.26 1010.61
1017.82 1017.48 1017.09 1016.67 1016.27 1015.84 1015.39 1015.02 1014.67 1014.26 1014.08 1013.89 1013.79 1012.25 1008.56 1008.28 1007.76 1007.62 1007.36 1007.23 1007.35 1006.97 1006.20 1005.99 1005.98 1004.96 1004.53 1005.45 1006.03 1007.22 1009.31 1010.21 1011.37 1011.95 1013.41 1013.49 1012.85 1012.03 1011.27 1009.98 1009.60 1009.83 1009.72 1010.13 1010.18
1017.71 1017.28 1016.88 1016.45 1016.00 1015.59 1015.15 1014.73 1014.25 1013.75 1013.72 1013.53 1012.83 1010.71 1007.82 1008.84 1007.72 1007.14 1006.84 1006.66 1006.89 1006.64 1006.64 1006.67 1006.14 1004.64 1004.14 1004.25 1004.74 1005.96 1007.71 1009.10 1010.53 1011.45 1012.85 1013.56 1013.84 1013.19 1012.39 1011.16 1010.14 1010.20 1010.14 1010.36 1010.55
1017.56 1017.12 1016.70 1016.24 1015.78 1015.37 1014.81 1014.47 1013.92 1013.74 1013.31 1012.06 1010.84 1009.09 1007.56 1006.58 1006.85 1006.92 1007.13 1006.91 1006.56 1006.31 1006.26 1006.13 1005.38 1004.06 1003.50 1002.75 1003.50 1005.48 1007.69 1007.18 1008.41 1010.80 1011.69 1013.05 1013.71 1013.83 1013.35 1012.09 1011.11 1010.55 1010.36 1010.35 1010.70
1017.48 1016.99 1016.54 1016.01 1015.55 1015.14 1014.30 1013.20 1013.08 1011.78 1009.94 1008.34 1007.24 1006.38 1006.34 1006.57 1007.06 1006.82 1006.88 1006.57 1006.21 1005.94 1005.12 1005.12 1004.33 1002.90 1002.05 1002.03 1003.10 1003.61 1005.11 1006.56 1007.53 1009.43 1010.55 1012.01 1013.30 1013.30 1013.66 1013.47 1012.45 1011.95 1010.87 1010.48 1010.68
1017.36 1016.83 1016.30 1015.81 1015.24 1014.74 1014.17 1009.88 1009.70 1009.16 1007.66 1007.21 1006.85 1006.29 1006.20 1005.79 1005.87 1006.30 1006.53 1005.78 1005.61 1004.81 1004.48 1004.32 1003.36 1002.37 1002.21 1002.17 1003.14 1003.01 1003.92 1006.58 1007.24 1008.42 1009.08 1010.62 1012.18 1013.18 1013.65 1013.84 1013.17 1012.54 1011.58 1011.69 1010.74
1017.22 1016.73 1016.15 1015.54 1014.92 1014.01 1011.09 1009.66 1009.18 1008.86 1006.86 1006.27 1005.84 1005.23 1005.52 1005.62 1004.72 1005.50 1006.16 1005.31 1004.89 1004.16 1004.02 1003.07 1002.45 1002.31 1002.62 1002.92 1003.12 1002.69 1002.58 1004.63 1005.80 1007.11 1007.84 1008.49 1010.26 1012.25 1012.89 1013.30 1013.33 1012.37 1011.62 1010.90 1010.53
1017.10 1016.56 1016.00 1015.33 1014.80 1010.82 1009.53 1009.39 1008.93 1008.90 1006.12 1005.60 1004.95 1005.03 1005.32 1004.86 1004.80 1005.45 1005.57 1004.84 1004.59 1003.86 1003.68 1003.18 1002.36 1002.95 1002.96 1002.68 1002.70 1001.88 1002.01 1003.47 1004.07 1005.46 1005.78 1007.18 1007.87 1009.41 1010.98 1012.25 1012.79 1012.49 1011.59 1011.24 1011.73
1016.91 1016.39 1015.91 1015.89 1013.67 1009.98 1009.36 1008.96 1008.75 1008.52 1004.77 1004.99 1004.30 1004.86 1004.64 1004.24 1004.67 1005.06 1005.43 1005.12 1003.97 1004.04 1004.16 1002.92 1003.16 1003.35 1002.91 1002.33 1002.33 1002.08 1003.01 1002.65 1003.16 1003.65 1003.80 1005.25 1006.22 1007.02 1008.66 1010.10 1010.97 1011.85 1010.93 1011.40 1010.86
1016.55 1016.05 1015.62 1014.16 1012.80 1009.92 1009.45 1008.98 1008.64 1006.83 1004.22 1004.26 1004.26 1004.07 1003.79 1003.91 1004.20 1004.93 1005.33 1005.38 1004.55 1004.22 1004.05 1003.14 1003.50 1003.37 1002.68 1002.49 1002.40 1002.58 1002.59 1002.71 1002.57 1002.22 1002.09 1003.53 1004.53 1005.34 1006.37 1007.23 1008.66 1010.26 1010.45 1010.65 1011.14
1015.93 1015.47 1015.23 1012.43 1009.81 1009.66 1009.41 1008.59 1006.50 1003.98 1004.60 1004.14 1003.59 1003.79 1003.48 1003.43 1003.98 1004.41 1004.55 1004.54 1003.67 1003.54 1002.89 1003.19 1003.07 1003.28 1003.01 1002.48 1002.44 1002.67 1002.14 1001.39 1001.23 1001.17 1001.71 1003.21 1003.39 1003.76 1005.10 1005.87 1007.58 1008.86 1009.77 1009.96 1009.14
1015.30 1014.90 1013.30 1011.58 1010.43 1010.19 1009.23 1007.51 1004.76 1004.02 1003.51 1003.96 1003.90 1003.96 1003.39 1003.66 1003.47 1003.84 1003.69 1003.25 1003.46 1003.09 1001.84 1001.69 1001.75 1002.28 1002.50 1002.39 1001.57 1001.98 1001.49 1001.04 1002.61 1003.22 1001.80 1003.31 1002.53 1003.80 1004.86 1005.36 1007.23 1008.24 1009.34 1010.09 1009.57
1014.63 1012.73 1011.01 1010.00 1010.53 1010.32 1008.65 1005.36 1003.40 1003.42 1003.61 1003.52 1003.53 1003.42 1002.93 1003.73 1004.06 1003.63 1003.21 1002.52 1002.49 1002.79 1002.08 1001.18 1001.23 1001.65 1001.86 1002.20 1001.94 1001.37 1001.56 1001.69 1003.48 1002.39 1002.54 1002.35 1004.03 1004.00 1004.69 1005.47 1006.12 1007.03 1007.96 1009.19 1009.50
1013.49 1010.15 1009.03 1009.67 1010.00 1009.66 1007.58 1004.62 1003.81 1004.01 1004.02 1003.79 1002.92 1003.55 1002.76 1002.81 1003.58 1003.08 1002.74 1003.08 1002.94 1003.13 1002.80 1001.90 1001.52 1001.41 1001.67 1002.17 1001.95 1001.81 1002.94 1003.43 1003.87 1003.87 1003.89 1003.14 1004.47 1004.54 1005.42 1006.27 1006.14 1006.37 1007.73 1008.89 1009.18
1012.99 1009.06 1008.82 1009.40 1009.54 1008.28 1005.35 1003.69 1004.08 1004.25 1004.45 1003.82 1003.47 1003.26 1003.25 1003.29 1003.44 1002.52 1003.14 1003.30 1003.52 1003.00 1003.16 1002.51 1002.01 1002.41 1002.06 1002.21 1001.60 1002.22 1003.84 1003.96 1002.77 1004.34 1004.88 1003.92 1005.71 1005.90 1006.59 1006.98 1007.27 1007.16 1007.95 1008.96 1009.66
1011.22 1008.04 1008.49 1008.89 1008.02 1006.13 1004.16 1004.17 1004.73 1003.85 1004.39 1003.93 1004.08 1003.76 1003.51 1003.68 1003.11 1002.70 1003.22 1003.17 1003.98 1003.53 1002.94 1002.73 1002.26 1002.31 1003.43 1003.76 1002.55 1001.73 1002.32 1002.56 1002.87 1005.59 1006.16 1005.77 1005.55 1007.19 1007.37 1007.69 1008.01 1007.45 1007.78 1008.59 1009.98
1010.89 1007.54 1008.31 1008.24 1006.20 1004.45 1004.11 1004.14 1004.21 1003.92 1003.81 1003.80 1003.65 1004.08 1004.07 1003.51 1003.58 1003.33 1003.35 1003.74 1004.18 1003.42 1003.38 1003.10 1002.98 1003.20 1005.63 1006.46 1003.37 1002.97 1003.17 1003.79 1006.08 1006.92 1007.44 1007.47 1006.70 1007.58 1007.84 1008.29 1008.96 1008.80 1008.29 1008.77 1009.91
1011.65 1007.57 1007.19 1007.45 1005.83 1004.65 1003.42 1003.76 1003.81 1004.24 1004.02 1004.25 1004.19 1004.28 1004.09 1003.64 1003.88 1004.15 1003.37 1003.55 1004.28 1004.06 1004.85 1004.65 1003.38 1005.22 1007.43 1007.57 1007.27 1006.09 1004.50 1006.85 1008.52 1008.26 1008.98 1007.85 1006.84 1007.50 1008.67 1009.28 1009.96 1009.88 1009.55 1009.29 1009.73
1011.28 1007.31 1005.94 1005.78 1005.27 1004.51 1003.92 1003.41 1003.53 1003.57 1004.24 1004.25 1004.19 1004.15 1003.86 1003.54 1003.49 1003.32 1003.59 1003.38 1003.71 1004.22 1004.58 1004.02 1004.10 1005.28 1006.79 1007.20 1007.50 1007.88 1005.82 1006.34 1007.79 1009.91 1009.98 1008.14 1005.99 1007.00 1008.34 1010.20 1011.41 1011.45 1010.54 1010.53 1010.21
1011.17 1008.64 1006.97 1005.61 1004.65 1004.31 1004.05 1003.76 1003.49 1003.16 1003.41 1003.62 1003.82 1003.93 1003.84 1003.69 1003.95 1003.84 1003.88 1003.62 1003.65 1005.25 1004.11 1003.71 1004.89 1006.84 1007.42 1007.06 1007.46 1006.42 1005.97 1006.78 1007.40 1008.47 1007.86 1007.74 1006.56 1007.96 1009.61 1010.81 1012.03 1012.49 1012.12 1011.98 1011.78
1011.98 1010.93 1009.75 1006.37 1005.30 1004.54 1003.61 1003.62 1003.29 1003.28 1003.17 1003.58 1003.44 1003.74 1003.77 1003.85 1004.30 1004.42 1004.32 1004.05 1003.85 1004.22 1004.04 1004.34 1004.68 1005.17 1006.09 1008.08 1008.39 1005.97 1005.26 1006.56 1008.18 1008.31 1007.69 1005.60 1005.60 1007.39 1009.72 1011.62 1012.73 1012.94 1013.32 1013.05 1013.17
Thickness
5745 5746 5747 5748 5750 5751 5752 5753 5753 5755 5757 5759 5761 5762 5764 5767 5774 5782 5793 5802 5806 5803 5802 5813 5813 5816 5818 5806 5816 5821 5786 5764 5799 5793 5794 5803 5791 5801 5805 5792 5795 5796 5784 5782 5777
5745 5746 5747 5748 5749 5750 5751 5751 5752 5753 5754 5757 5759 5762 5764 5767 5780 5794 5802 5804 5802 5802 5803 5806 5803 5812 5800 5801 5811 5800 5774 5774 5802 5787 5804 5801 5797 5794 5795 5788 5782 5789 5789 5780 5779
5745 5745 5746 5747 5748 5749 5750 5750 5750 5752 5753 5755 5757 5760 5763 5765 5783 5803 5803 5801 5801 5802 5811 5818 5821 5815 5794 5800 5803 5798 5767 5790 5802 5808 5815 5802 5799 5805 5797 5779 5786 5777 5776 5775 5775
5744 5744 5745 5745 5746 5747 5748 5748 5749 5750 5752 5753 5755 5758 5761 5771 5778 5805 5800 5799 5800 5805 5810 5810 5812 5806 5795 5785 5808 5778 5767 5777 5788 5797 5806 5793 5806 5795 5796 5787 5800 5790 5783 5778 5773
5743 5743 5743 5743 5744 5744 5745 5746 5747 5749 5750 5752 5753 5755 5765 5779 5791 5806 5799 5798 5800 5805 5806 5807 5808 5813 5784 5797 5801 5779 5761 5758 5771 5772 5785 5786 5791 5790 5791 5801 5799 5791 5784 5778 5777
5742 5741 5741 5742 5743 5743 5744 5744 5745 5746 5747 5749 5751 5752 5767 5775 5803 5804 5803 5801 5806 5805 5808 5814 5813 5816 5810 5803 5797 5783 5772 5762 5760 5766 5763 5765 5777 5786 5791 5797 5788 5784 5782 5782 5781
5740 5740 5740 5740 5741 5741 5742 5742 5743 5744 5745 5747 5748 5755 5771 5776 5800 5801 5802 5802 5808 5807 5802 5814 5817 5808 5814 5792 5799 5785 5765 5769 5760 5756 5748 5751 5751 5771 5788 5792 5783 5782 5785 5783 5782
5739 5739 5739 5739 5739 5740 5741 5742 5743 5745 5745 5746 5747 5758 5771 5791 5796 5796 5801 5798 5803 5807 5809 5815 5815 5812 5809 5807 5798 5782 5763 5741 5752 5757 5738 5744 5725 5750 5770 5779 5780 5779 5783 5783 5786
5738 5738 5738 5738 5739 5739 5740 5741 5743 5746 5745 5746 5752 5761 5766 5784 5781 5795 5800 5789 5794 5800 5802 5804 5803 5803 5809 5793 5787 5784 5757 5747 5747 5761 5742 5733 5722 5737 5763 5771 5776 5777 5779 5780 5781
5737 5737 5737 5738 5738 5738 5740 5741 5743 5743 5746 5753 5761 5758 5773 5774 5784 5788 5793 5790 5783 5786 5783 5784 5788 5788 5797 5801 5766 5764 5731 5768 5763 5753 5752 5734 5723 5729 5749 5762 5769 5776 5779 5780 5778
5736 5736 5737 5738 5738 5738 5742 5752 5750 5750 5762 5765 5773 5774 5775 5785 5787 5779 5786 5781 5782 5776 5763 5778 5769 5773 5799 5812 5802 5801 5781 5760 5770 5765 5754 5739 5724 5731 5739 5741 5750 5759 5773 5780 5778
5734 5735 5737 5738 5739 5741 5743 5769 5762 5766 5758 5775 5774 5776 5782 5789 5767 5773 5786 5769 5766 5758 5774 5768 5761 5794 5807 5806 5793 5799 5785 5744 5768 5767 5764 5748 5732 5731 5733 5734 5747 5755 5766 5768 5782
5732 5733 5735 5738 5740 5745 5765 5765 5773 5772 5760 5766 5776 5776 5775 5781 5773 5768 5774 5774 5764 5763 5765 5766 5782 5797 5786 5784 5778 5792 5799 5771 5763 5765 5771 5767 5743 5727 5734 5738 5739 5756 5770 5777 5783
5731 5732 5735 5738 5740 5768 5765 5771 5773 5771 5751 5752 5765 5772 5776 5781 5763 5781 5782 5775 5765 5760 5767 5770 5792 5776 5774 5775 5785 5783 5809 5789 5780 5764 5745 5773 5735 5750 5745 5738 5737 5744 5763 5769 5766
5730 5731 5733 5730 5745 5762 5767 5773 5773 5763 5731 5762 5768 5791 5782 5771 5769 5765 5782 5770 5760 5759 5762 5763 5763 5761 5762 5777 5790 5786 5791 5794 5789 5778 5781 5767 5753 5757 5761 5743 5741 5738 5764 5766 5778
5729 5731 5732 5741 5747 5766 5769 5771 5764 5736 5723 5754 5769 5764 5765 5770 5766 5766 5761 5770 5774 5759 5763 5766 5780 5772 5775 5785 5789 5793 5785 5785 5791 5796 5780 5778 5772 5758 5762 5766 5760 5750 5761 5769 5770
5731 5733 5733 5748 5760 5767 5767 5759 5739 5745 5763 5749 5756 5763 5763 5760 5757 5757 5750 5746 5747 5736 5744 5756 5761 5771 5779 5767 5783 5778 5776 5765 5767 5774 5768 5787 5777 5774 5781 5783 5765 5758 5760 5771 5789
5733 5734 5746 5752 5759 5760 5758 5746 5730 5752 5755 5766 5760 5757 5751 5758 5760 5756 5752 5748 5761 5758 5764 5751 5741 5764 5777 5768 5773 5772 5785 5769 5717 5709 5769 5765 5769 5767 5787 5792 5773 5771 5761 5761 5777
5733 5746 5755 5763 5756 5755 5745 5740 5755 5757 5763 5757 5758 5746 5755 5754 5749 5752 5753 5762 5768 5767 5751 5760 5755 5780 5781 5780 5782 5778 5768 5800 5752 5782 5766 5786 5763 5785 5788 5782 5782 5775 5773 5763 5774
5739 5757 5760 5760 5757 5750 5741 5741 5756 5765 5763 5760 5747 5749 5747 5757 5743 5752 5755 5760 5755 5764 5771 5767 5746 5776 5778 5782 5785 5782 5779 5751 5754 5722 5719 5767 5748 5738 5761 5762 5777 5779 5772 5764 5771
5737 5750 5759 5759 5756 5744 5742 5758 5755 5764 5761 5752 5747 5747 5749 5745 5746 5758 5746 5754 5756 5760 5765 5765 5762 5751 5772 5761 5768 5767 5744 5755 5773 5752 5729 5741 5729 5762 5753 5760 5760 5771 5768 5761 5762
5748 5743 5762 5760 5736 5752 5754 5756 5735 5758 5760 5757 5754 5749 5746 5744 5748 5755 5742 5751 5756 5759 5749 5768 5765 5751 5746 5755 5787 5794 5779 5788 5772 5728 5737 5745 5724 5749 5756 5760 5763 5773 5770 5768 5755
5740 5756 5760 5754 5733 5749 5758 5753 5755 5752 5753 5750 5748 5749 5750 5748 5733 5747 5748 5756 5754 5759 5750 5763 5752 5741 5706 5711 5772 5766 5774 5767 5731 5725 5720 5705 5724 5746 5749 5753 5756 5757 5765 5767 5758
5729 5735 5746 5744 5754 5748 5751 5745 5741 5753 5750 5750 5744 5747 5742 5742 5745 5729 5744 5754 5752 5752 5738 5750 5754 5707 5679 5689 5708 5711 5759 5712 5703 5701 5693 5705 5726 5737 5730 5736 5743 5741 5753 5763 5760
5728 5739 5751 5729 5738 5745 5749 5750 5738 5735 5746 5748 5737 5738 5738 5733 5738 5739 5743 5750 5753 5737 5743 5752 5732 5735 5718 5716 5699 5681 5739 5743 5720 5684 5691 5708 5746 5746 5743 5726 5721 5731 5749 5748 5754
5712 5724 5741 5742 5748 5741 5726 5734 5735 5747 5745 5737 5733 5738 5742 5733 5731 5724 5732 5738 5735 5726 5740 5756 5718 5707 5679 5707 5716 5729 5743 5726 5715 5720 5721 5721 5739 5743 5732 5724 5716 5718 5728 5732 5735
5709 5712 5709 5728 5731 5728 5734 5734 5740 5748 5753 5749 5747 5739 5734 5738 5740 5740 5743 5745 5745 5729 5732 5729 5726 5726 5716 5697 5693 5719 5738 5722 5708 5709 5730 5745 5754 5744 5723 5709 5709 5714 5712 5718 5720